Location: Croagnes
(43.9363°N, 5.3265°E)
Time: 22:23:09
(UTC+00:00)

H-2A R/B - Pass Details

Date: 06 June 2020
Orbit: 734 x 836 km, 98.2° (Epoch: 08 July)

Event Time Altitude Azimuth Distance (km) Brightness Sun altitude
Rises 19:50:27 0° 193° (SSW) 3,221 5.0 -5.5°
Reaches altitude 10° 19:52:58 10° 204° (SSW) 2,315 4.3 -5.8°
Maximum altitude 19:57:28 31° 265° (W) 1,367 3.9 -6.4°
Drops below altitude 10° 20:02:06 10° 327° (NNW) 2,390 6.1 -7.1°
Sets 20:04:45 0° 338° (NNW) 3,342 6.6 -7.4°
